This demonstration page uses our WeatherBlox Daily Observations layout. Learn more.

Left ArrowRight Arrow

34.16533, -84.80231

Hourly Observations for March 13, 2021

Temp ( °F °C ) Dew Point ( °F °C ) Humidity (%) Winds ( mph kmh ) Pressure ( in mb ) Visibility ( mi km ) Precip ( " mm )
12:53 am 00:53 Clear 57 13.9 52 11.1 83 83 Calm 30.26 1025 10 16 0.00 0.00
1:53 am 01:53 Clear 55 12.8 51 10.6 87 87 Calm 30.26 1025 10 16 0.00 0.00
2:53 am 02:53 Clear 54 12.2 51 10.6 90 90 Calm 30.24 1024 9 14 0.00 0.00
3:53 am 03:53 Clear 53 11.7 50 10 89 89 Calm 30.23 1024 10 16 0.00 0.00
4:53 am 04:53 Clear 53 11.7 50 10 89 89 Calm 30.24 1024 9 14 0.00 0.00
5:53 am 05:53 Clear 54 12.2 51 10.6 90 90 Calm 30.25 1024 10 16 0.00 0.00
6:53 am 06:53 Mostly Sunny 53 11.7 50 10 89 89 Calm 30.24 1024 9 14 0.00 0.00
7:09 am 07:09 Mostly Cloudy with Mist and Fog 53 11.7 50 10 89 89 Calm 30.27 1025 6 10 0.00 0.00
7:19 am 07:19 Cloudy with Mist and Fog 54 12.2 50 10 87 87 Calm 30.28 1026 6 10 0.00 0.00
7:53 am 07:53 Cloudy 56 13.3 52 11.1 87 87 Calm 30.28 1025 9 14 0.00 0.00
8:03 am 08:03 Cloudy with Mist and Fog 56 13.3 53 11.7 90 90 Calm 30.31 1026 1 2 0.00 0.00
8:10 am 08:10 Cloudy with Mist and Fog 56 13.3 54 12.2 93 93 Calm 30.31 1026 1 1 0.00 0.00
8:15 am 08:15 Cloudy with Mist and Fog 57 13.9 54 12.2 90 90 Calm 30.31 1026 2 3 0.00 0.00
8:30 am 08:30 Cloudy with Mist and Fog 57 13.9 55 12.8 93 93 Calm 30.31 1026 1 2 0.00 0.00
8:53 am 08:53 Mostly Cloudy with Mist and Fog 59 15 57 13.9 93 93 Calm 30.29 1026 1 1 0.00 0.00
9:24 am 09:24 Cloudy with Mist and Fog 60 15.6 58 14.4 93 93 Calm 30.31 1027 1 2 0.00 0.00
9:38 am 09:38 Cloudy with Mist and Fog 61 16.1 58 14.4 90 90 Calm 30.32 1027 1 1 0.00 0.00
9:50 am 09:50 Cloudy with Mist and Fog 61 16 57 14 88 88 Calm 30.31 1027 1 2 0.00 0.00
9:53 am 09:53 Cloudy with Mist and Fog 61 16.1 58 14.4 90 90 Calm 30.30 1026 2 2 0.00 0.00
10:03 am 10:03 Cloudy with Mist and Fog 61 16.1 58 14.4 90 90 VRB 3 6 30.31 1027 2 3 0.00 0.00
10:22 am 10:22 Cloudy with Mist and Fog 62 16.7 58 14.4 86 86 Calm 30.31 1026 5 8 0.00 0.00
10:35 am 10:35 Cloudy with Haze 63 17.2 58 14.4 84 84 NNW 6 9 30.31 1026 5 8 0.00 0.00
10:51 am 10:51 Cloudy with Haze 64 18 57 14 78 78 N 3 6 30.31 1026 6 10 0.00 0.00
10:53 am 10:53 Cloudy with Haze 64 17.8 58 14.4 81 81 N 3 6 30.30 1026 6 10 0.00 0.00
11:53 am 11:53 Cloudy 67 19.4 59 15 76 76 Calm 30.28 1025 10 16 0.00 0.00
12:53 pm 12:53 Cloudy 70 21.1 59 15 68 68 N 6 9 30.26 1025 10 16 0.00 0.00
1:53 pm 13:53 Cloudy 73 22.8 59 15 62 62 VRB 6 9 30.22 1024 10 16 0.00 0.00
2:53 pm 14:53 Cloudy 73 22.8 60 15.6 64 64 N 5 7 30.21 1023 10 16 0.00 0.00
3:53 pm 15:53 Mostly Cloudy 74 23.3 60 15.6 62 62 VRB 5 7 30.19 1022 10 16 0.00 0.00
4:53 pm 16:53 Mostly Cloudy 75 23.9 59 15 58 58 NNE 6 9 30.17 1022 10 16 0.00 0.00
5:53 pm 17:53 Mostly Cloudy 73 22.8 59 15 62 62 NE 3 6 30.17 1022 10 16 0.00 0.00
6:53 pm 18:53 Cloudy 70 21.1 58 14.4 66 66 N 7 11 30.19 1022 10 16 0.00 0.00
7:53 pm 19:53 Partly Cloudy 67 19.4 57 13.9 71 71 N 6 9 30.19 1023 10 16 0.00 0.00
8:53 pm 20:53 Clear 65 18.3 56 13.3 73 73 NNE 3 6 30.19 1022 10 16 0.00 0.00
9:53 pm 21:53 Clear 63 17.2 55 12.8 76 76 Calm 30.19 1022 10 16 0.00 0.00
10:53 pm 22:53 Partly Cloudy 60 15.6 55 12.8 84 84 Calm 30.18 1022 10 16 0.00 0.00
11:53 pm 23:53 Cloudy 61 16.1 53 11.7 75 75 NE 5 7 30.17 1022 10 16 0.00 0.00

Powered by AerisWeather